When you browse on this site, cookies collect data to enhance your experience and personalize the content and advertising you see.
Visit our Privacy Policy to learn more. By continuing to use the site, you agree to this use of cookies and data.
  • Em Portugal
  • Lista de países
  • Para 7 dias
  • Temperatura da água
  • Mapa do tempo
  • Widgets de tempo
  • user-avatar
    Iniciar Sessão

    Previsão horária em Pert

    Hoje, 20 Fevereiro, Quinta-feira

    Tempo Temperatura Precipitação Vento Pressão Humidade
    00:00 +28°C° 0 mm 4 m/s 756 mmHg 51%
    01:00 +27°C° 0 mm 4 m/s 757 mmHg 51%
    02:00 +27°C° 0 mm 4 m/s 757 mmHg 49%
    03:00 +27°C° 0 mm 4 m/s 757 mmHg 48%
    04:00 +27°C° 0 mm 4 m/s 757 mmHg 46%
    05:00 +27°C° 0 mm 4 m/s 758 mmHg 44%
    06:00 +28°C° 0 mm 5 m/s 758 mmHg 42%
    07:00 +28°C° 0 mm 5 m/s 758 mmHg 40%
    08:00 +29°C° 0 mm 5 m/s 759 mmHg 38%
    09:00 +30°C° 0 mm 5 m/s 759 mmHg 36%
    10:00 +32°C° 0 mm 4 m/s 759 mmHg 33%
    11:00 +34°C° 0 mm 4 m/s 759 mmHg 31%
    12:00 +35°C° 0 mm 4 m/s 758 mmHg 30%
    13:00 +36°C° 0 mm 4 m/s 758 mmHg 28%
    14:00 +37°C° 0 mm 3 m/s 757 mmHg 27%
    15:00 +37°C° 0 mm 3 m/s 757 mmHg 27%
    16:00 +36°C° 0 mm 4 m/s 757 mmHg 27%
    17:00 +36°C° 0 mm 4 m/s 757 mmHg 28%
    18:00 +35°C° 0 mm 4 m/s 757 mmHg 30%
    19:00 +33°C° 0 mm 3 m/s 758 mmHg 33%
    20:00 +32°C° 0 mm 4 m/s 758 mmHg 30%
    21:00 +30°C° 0 mm 5 m/s 758 mmHg 30%
    22:00 +30°C° 0 mm 5 m/s 758 mmHg 29%
    23:00 +30°C° 0 mm 6 m/s 759 mmHg 29%

    Amanhã, 21 Fevereiro, Sexta-feira

    Tempo Temperatura Precipitação Vento Pressão Humidade
    00:00 +29°C° 0 mm 6 m/s 759 mmHg 31%
    01:00 +29°C° 0 mm 5 m/s 759 mmHg 32%
    02:00 +28°C° 0 mm 5 m/s 758 mmHg 34%
    03:00 +28°C° 0 mm 5 m/s 759 mmHg 35%
    04:00 +27°C° 0 mm 4 m/s 759 mmHg 37%
    05:00 +27°C° 0 mm 4 m/s 759 mmHg 38%
    06:00 +28°C° 0 mm 5 m/s 759 mmHg 38%
    07:00 +28°C° 0 mm 5 m/s 760 mmHg 37%
    08:00 +29°C° 0 mm 5 m/s 760 mmHg 37%
    09:00 +30°C° 0 mm 5 m/s 760 mmHg 34%
    10:00 +32°C° 0 mm 5 m/s 760 mmHg 32%
    11:00 +33°C° 0 mm 5 m/s 760 mmHg 30%
    12:00 +32°C° 0 mm 5 m/s 760 mmHg 32%
    13:00 +32°C° 0 mm 5 m/s 759 mmHg 34%
    14:00 +30°C° 0 mm 5 m/s 759 mmHg 36%
    21:00 +26°C° 0 mm 2 m/s 756 mmHg 67%
    22:00 +28°C° 0 mm 3 m/s 759 mmHg 41%
    23:00 +28°C° 0 mm 2 m/s 759 mmHg 41%

    Depois de amanhã, 22 Fevereiro, Sábado

    Tempo Temperatura Precipitação Vento Pressão Humidade
    00:00 +28°C° 0.1 mm 2 m/s 758 mmHg 41%
    01:00 +28°C° 0.1 mm 2 m/s 758 mmHg 41%
    02:00 +27°C° 0.1 mm 2 m/s 757 mmHg 41%
    03:00 +27°C° 0 mm 2 m/s 758 mmHg 42%
    04:00 +27°C° 0 mm 2 m/s 758 mmHg 42%
    05:00 +27°C° 0 mm 2 m/s 758 mmHg 43%
    06:00 +27°C° 0.1 mm 2 m/s 758 mmHg 52%
    07:00 +26°C° 0.1 mm 2 m/s 759 mmHg 60%
    08:00 +26°C° 0.1 mm 3 m/s 759 mmHg 69%
    09:00 +26°C° 0 mm 3 m/s 759 mmHg 62%
    10:00 +27°C° 0 mm 3 m/s 759 mmHg 56%
    11:00 +27°C° 0 mm 4 m/s 759 mmHg 50%
    12:00 +28°C° 0 mm 4 m/s 758 mmHg 49%
    13:00 +29°C° 0 mm 3 m/s 758 mmHg 48%
    14:00 +30°C° 0 mm 3 m/s 757 mmHg 47%
    15:00 +32°C° 0 mm 4 m/s 757 mmHg 46%
    16:00 +32°C° 0 mm 4 m/s 757 mmHg 45%
    17:00 +32°C° 0 mm 5 m/s 756 mmHg 44%
    18:00 +30°C° 0 mm 5 m/s 757 mmHg 47%
    19:00 +29°C° 0 mm 4 m/s 757 mmHg 50%
    20:00 +27°C° 0 mm 4 m/s 757 mmHg 53%
    21:00 +27°C° 0 mm 4 m/s 757 mmHg 56%
    22:00 +26°C° 0 mm 4 m/s 757 mmHg 59%
    23:00 +26°C° 0 mm 4 m/s 758 mmHg 61%

    23 Fevereiro, Domingo

    Tempo Temperatura Precipitação Vento Pressão Humidade
    00:00 +25°C° 0 mm 4 m/s 757 mmHg 63%
    01:00 +25°C° 0 mm 4 m/s 757 mmHg 64%
    02:00 +24°C° 0 mm 3 m/s 757 mmHg 65%
    03:00 +24°C° 0 mm 3 m/s 757 mmHg 67%
    04:00 +22°C° 0 mm 3 m/s 757 mmHg 69%
    05:00 +22°C° 0 mm 3 m/s 757 mmHg 70%
    06:00 +24°C° 0 mm 3 m/s 757 mmHg 67%
    07:00 +25°C° 0 mm 3 m/s 758 mmHg 63%
    08:00 +25°C° 0 mm 3 m/s 758 mmHg 59%
    09:00 +28°C° 0 mm 2 m/s 758 mmHg 54%
    10:00 +30°C° 0 mm 2 m/s 758 mmHg 48%
    11:00 +32°C° 0 mm 2 m/s 758 mmHg 42%
    12:00 +34°C° 0 mm 2 m/s 757 mmHg 40%
    13:00 +35°C° 0 mm 3 m/s 756 mmHg 38%
    14:00 +36°C° 0 mm 3 m/s 755 mmHg 36%
    15:00 +35°C° 0.1 mm 4 m/s 755 mmHg 39%
    16:00 +34°C° 0.1 mm 4 m/s 755 mmHg 42%
    17:00 +33°C° 0.1 mm 5 m/s 755 mmHg 45%
    18:00 +30°C° 0.8 mm 5 m/s 755 mmHg 54%
    19:00 +28°C° 0.8 mm 5 m/s 755 mmHg 63%
    20:00 +27°C° 0.8 mm 5 m/s 756 mmHg 71%
    21:00 +26°C° 0.1 mm 5 m/s 756 mmHg 70%
    22:00 +26°C° 0.1 mm 5 m/s 756 mmHg 70%
    23:00 +26°C° 0.1 mm 5 m/s 757 mmHg 69%

    24 Fevereiro, Segunda-feira

    Tempo Temperatura Precipitação Vento Pressão Humidade
    00:00 +26°C° 0.1 mm 5 m/s 756 mmHg 69%
    01:00 +26°C° 0.1 mm 6 m/s 756 mmHg 69%
    02:00 +26°C° 0.1 mm 6 m/s 756 mmHg 69%
    03:00 +26°C° 0 mm 6 m/s 756 mmHg 70%
    04:00 +26°C° 0 mm 6 m/s 757 mmHg 72%
    05:00 +26°C° 0 mm 6 m/s 757 mmHg 73%
    06:00 +26°C° 0 mm 6 m/s 757 mmHg 70%
    07:00 +27°C° 0 mm 6 m/s 757 mmHg 67%
    08:00 +27°C° 0 mm 6 m/s 758 mmHg 64%
    09:00 +29°C° 0.2 mm 5 m/s 757 mmHg 58%
    10:00 +30°C° 0.2 mm 4 m/s 757 mmHg 53%
    11:00 +33°C° 0.2 mm 3 m/s 757 mmHg 47%
    12:00 +34°C° 0 mm 3 m/s 757 mmHg 43%
    13:00 +36°C° 0 mm 3 m/s 756 mmHg 40%
    14:00 +37°C° 0 mm 3 m/s 755 mmHg 37%
    15:00 +35°C° 0.8 mm 4 m/s 755 mmHg 45%
    16:00 +33°C° 0.8 mm 5 m/s 755 mmHg 53%
    17:00 +30°C° 0.8 mm 6 m/s 755 mmHg 62%
    18:00 +29°C° 0.9 mm 5 m/s 756 mmHg 63%
    19:00 +28°C° 0.9 mm 4 m/s 756 mmHg 64%
    20:00 +27°C° 0.9 mm 3 m/s 757 mmHg 66%
    21:00 +27°C° 0.1 mm 3 m/s 757 mmHg 66%
    22:00 +27°C° 0.1 mm 3 m/s 757 mmHg 67%
    23:00 +27°C° 0.1 mm 2 m/s 757 mmHg 68%

    25 Fevereiro, Terça-feira

    Tempo Temperatura Precipitação Vento Pressão Humidade
    00:00 +26°C° 0 mm 2 m/s 757 mmHg 69%
    01:00 +26°C° 0 mm 3 m/s 757 mmHg 71%
    02:00 +26°C° 0 mm 3 m/s 757 mmHg 72%
    03:00 +26°C° 0 mm 3 m/s 757 mmHg 72%
    04:00 +26°C° 0 mm 3 m/s 757 mmHg 71%
    05:00 +25°C° 0 mm 3 m/s 757 mmHg 71%
    06:00 +26°C° 0 mm 3 m/s 757 mmHg 67%
    07:00 +27°C° 0 mm 3 m/s 758 mmHg 62%
    08:00 +28°C° 0 mm 3 m/s 758 mmHg 58%
    09:00 +30°C° 0 mm 3 m/s 758 mmHg 53%
    10:00 +33°C° 0 mm 3 m/s 758 mmHg 48%
    11:00 +35°C° 0 mm 3 m/s 758 mmHg 43%
    12:00 +36°C° 0 mm 3 m/s 757 mmHg 41%
    13:00 +37°C° 0 mm 3 m/s 757 mmHg 38%
    14:00 +38°C° 0 mm 3 m/s 757 mmHg 35%
    15:00 +37°C° 0.4 mm 4 m/s 756 mmHg 37%
    16:00 +36°C° 0.4 mm 4 m/s 756 mmHg 40%
    17:00 +36°C° 0.4 mm 4 m/s 755 mmHg 42%
    18:00 +34°C° 1.8 mm 5 m/s 756 mmHg 47%
    19:00 +32°C° 1.8 mm 5 m/s 756 mmHg 51%
    20:00 +29°C° 1.8 mm 6 m/s 757 mmHg 56%
    21:00 +29°C° 0.1 mm 6 m/s 757 mmHg 56%
    22:00 +29°C° 0.1 mm 5 m/s 757 mmHg 56%
    23:00 +29°C° 0.1 mm 5 m/s 758 mmHg 57%
    Mostrar mais